Simultaneous Nadir Overpasses (SNOs) Predictions

Prediction of SNOs between AQUA and LANDSAT-8 Satellite Orbit:

Table of predicted SNOs for the next 14.0 days since TLE Epoch: 9/2/2023
Index Date (AQUA) Time (AQUA) Lat,Lon (AQUA) SZA (AQUA ) Date (LANDSAT-8) Time (LANDSAT-8) Lat,Lon (LANDSAT-8) SZA (LANDSAT-8 ) Distance(km) Time Diff (sec)
1 09/09/2023 02:20:46 -71.94, -33.22 113.60 09/09/2023 02:19:40 -71.90, -35.74 113.65 87.23 66
2 09/09/2023 03:10:11 71.94, 134.43 66.42 09/09/2023 03:09:05 71.91, 131.92 66.37 86.65 66
3 09/09/2023 03:59:37 -72.08, -58.18 113.43 09/09/2023 03:58:29 -72.12, -60.08 113.41 65.33 68
4 09/09/2023 04:49:02 72.08, 109.47 66.59 09/09/2023 04:47:55 72.08, 107.48 66.56 67.91 67
5 09/09/2023 05:38:29 -72.28, -83.24 113.21 09/09/2023 05:37:19 -72.28, -84.51 113.22 43.20 70
6 09/09/2023 06:27:54 72.28, 84.41 66.81 09/09/2023 06:26:44 72.29, 83.15 66.81 42.48 70
7 09/09/2023 07:17:20 -72.43,-108.21 113.04 09/09/2023 07:16:09 -72.44,-108.94 113.03 24.64 71
8 09/09/2023 08:06:45 72.43, 59.43 66.98 09/09/2023 08:05:34 72.45, 58.73 66.99 23.91 71
9 09/09/2023 08:56:12 -72.63,-133.28 112.82 09/09/2023 08:54:59 -72.60,-133.36 112.85 3.53 73
10 09/09/2023 09:45:37 72.63, 34.36 67.20 09/09/2023 09:44:24 72.62, 34.31 67.18 2.29 73
11 09/09/2023 10:35:01 -72.66,-158.06 112.76 09/09/2023 10:33:51 -72.66,-157.98 112.76 2.75 70
12 09/09/2023 11:24:25 72.62, 9.68 67.21 09/09/2023 11:23:17 72.62, 9.59 67.21 3.14 68
13 09/09/2023 12:13:49 -72.65, 177.27 112.74 09/09/2023 12:12:44 -72.66, 177.31 112.74 1.53 65
14 09/09/2023 13:03:14 72.66, -15.09 67.28 09/09/2023 13:02:09 72.67, -15.03 67.29 2.77 65
15 09/09/2023 13:52:37 -72.64, 152.59 112.73 09/09/2023 13:51:37 -72.66, 152.59 112.71 2.62 60
16 09/09/2023 14:42:02 72.64, -39.77 67.29 09/09/2023 14:41:02 72.67, -39.75 67.32 3.49 60
17 09/09/2023 15:31:26 -72.68, 127.82 112.67 09/09/2023 15:30:30 -72.66, 127.87 112.68 2.32 56
18 09/09/2023 16:20:51 72.68, -64.54 67.36 09/09/2023 16:19:55 72.67, -64.46 67.35 2.74 56
19 09/09/2023 17:10:14 -72.66, 103.14 112.65 09/09/2023 17:09:23 -72.66, 103.15 112.65 0.23 51
20 09/09/2023 17:59:39 72.67, -89.22 67.37 09/09/2023 17:58:48 72.68, -89.18 67.38 1.42 51
21 09/09/2023 18:49:02 -72.65, 78.47 112.64 09/09/2023 18:48:16 -72.67, 78.43 112.63 2.08 46
22 09/09/2023 19:38:27 72.65,-113.89 67.38 09/09/2023 19:37:41 72.68,-113.90 67.40 2.47 46
23 09/09/2023 20:27:51 -72.69, 53.69 112.58 09/09/2023 20:27:09 -72.67, 53.72 112.60 2.64 42
24 09/09/2023 21:17:16 72.69,-138.67 67.45 09/09/2023 21:16:34 72.68,-138.62 67.43 2.45 42
25 09/09/2023 22:06:39 -72.68, 29.02 112.56 09/09/2023 22:06:02 -72.67, 29.00 112.57 1.17 37
26 09/09/2023 22:56:04 72.68,-163.34 67.46 09/09/2023 22:55:27 72.68,-163.34 67.46 0.28 37
27 09/09/2023 23:45:27 -72.66, 4.35 112.55 09/09/2023 23:44:55 -72.67, 4.28 112.54 2.30 32
28 09/10/2023 00:34:52 72.67, 171.98 67.47 09/10/2023 00:34:20 72.68, 171.95 67.48 1.89 32
29 09/10/2023 01:24:16 -72.70, -20.43 112.48 09/10/2023 01:23:48 -72.67, -20.44 112.52 3.54 28
30 09/10/2023 02:13:41 72.71, 147.21 67.54 09/10/2023 02:13:13 72.68, 147.23 67.51 2.94 28
31 09/10/2023 03:03:04 -72.69, -45.11 112.47 09/10/2023 03:02:41 -72.67, -45.16 112.49 2.56 23
32 09/10/2023 03:52:29 72.69, 122.53 67.55 09/10/2023 03:52:06 72.68, 122.51 67.54 1.46 23
33 09/10/2023 04:41:52 -72.68, -69.78 112.46 09/10/2023 04:41:34 -72.67, -69.88 112.46 3.15 18
34 09/10/2023 05:31:17 72.68, 97.86 67.56 09/10/2023 05:30:59 72.68, 97.79 67.57 2.22 18
35 09/10/2023 06:20:41 -72.72, -94.56 112.39 09/10/2023 06:20:26 -72.73, -94.49 112.38 2.51 15
36 09/10/2023 07:10:06 72.72, 73.08 67.63 09/10/2023 07:09:51 72.74, 73.17 67.65 3.67 15
37 09/10/2023 07:59:29 -72.70,-119.23 112.38 09/10/2023 07:59:19 -72.73,-119.21 112.35 3.00 10
38 09/10/2023 08:48:54 72.71, 48.40 67.64 09/10/2023 08:48:45 72.69, 48.35 67.62 2.90 9
39 09/10/2023 09:38:18 -72.74,-144.01 112.31 09/10/2023 09:38:12 -72.73,-143.93 112.33 2.98 6
40 09/10/2023 10:27:42 72.70, 23.73 67.66 09/10/2023 10:27:38 72.69, 23.64 67.65 3.22 4
41 09/10/2023 11:17:06 -72.73,-168.68 112.30 09/10/2023 11:17:05 -72.73,-168.65 112.30 1.24 1
42 09/10/2023 12:06:31 72.74, -1.05 67.72 09/10/2023 12:06:30 72.74, -0.98 67.73 2.33 1
43 09/10/2023 12:55:54 -72.72, 166.64 112.29 09/10/2023 12:55:58 -72.73, 166.63 112.27 1.82 4
44 09/10/2023 13:45:19 72.72, -25.72 67.73 09/10/2023 13:45:23 72.74, -25.70 67.76 2.50 4
45 09/10/2023 14:34:43 -72.76, 141.86 112.22 09/10/2023 14:34:51 -72.73, 141.92 112.24 3.03 8
46 09/10/2023 15:24:08 72.76, -50.50 67.80 09/10/2023 15:24:16 72.74, -50.42 67.78 3.33 8
47 09/10/2023 16:13:31 -72.74, 117.19 112.21 09/10/2023 16:13:44 -72.74, 117.20 112.22 0.96 13
48 09/10/2023 17:02:56 72.75, -75.18 67.81 09/10/2023 17:03:09 72.75, -75.14 67.81 1.32 13
49 09/10/2023 17:52:19 -72.73, 92.51 112.20 09/10/2023 17:52:37 -72.74, 92.48 112.19 1.30 18
50 09/10/2023 18:41:44 72.74, -99.85 67.83 09/10/2023 18:42:02 72.75, -99.86 67.84 1.19 18
51 09/10/2023 19:31:07 -72.72, 67.84 112.18 09/10/2023 19:31:30 -72.74, 67.76 112.16 3.38 23
52 09/10/2023 20:20:32 72.72,-124.53 67.84 09/10/2023 20:20:55 72.75,-124.57 67.87 3.16 23
53 09/10/2023 21:09:56 -72.76, 43.06 112.12 09/10/2023 21:10:23 -72.74, 43.04 112.14 2.19 27
54 09/10/2023 21:59:21 72.76,-149.30 67.91 09/10/2023 21:59:48 72.75,-149.29 67.89 1.66 27
55 09/10/2023 22:48:44 -72.74, 18.39 112.10 09/10/2023 22:49:16 -72.74, 18.32 112.11 2.11 32
56 09/10/2023 23:38:09 72.75,-173.98 67.92 09/10/2023 23:38:41 72.75,-174.01 67.92 1.06 32
57 09/11/2023 00:27:33 -72.78, -6.39 112.04 09/11/2023 00:28:08 -72.79, -6.29 112.03 3.43 35
58 09/11/2023 01:16:57 72.74, 161.35 67.93 09/11/2023 01:17:34 72.75, 161.27 67.95 2.89 37
59 09/11/2023 02:06:21 -72.77, -31.07 112.02 09/11/2023 02:07:01 -72.79, -31.01 112.00 3.14 40
60 09/11/2023 02:55:46 72.78, 136.57 68.00 09/11/2023 02:56:27 72.75, 136.55 67.97 2.95 41
61 09/11/2023 03:45:09 -72.76, -55.74 112.01 09/11/2023 03:45:55 -72.74, -55.83 112.03 3.44 46
62 09/11/2023 04:34:34 72.77, 111.89 68.01 09/11/2023 04:35:20 72.75, 111.83 68.00 2.39 46
63 09/11/2023 05:23:57 -72.80, -80.52 111.95 09/11/2023 05:24:46 -72.80, -80.45 111.95 2.41 49
64 09/11/2023 06:13:21 72.75, 87.22 68.03 09/11/2023 06:14:12 72.75, 87.11 68.03 3.37 51
65 09/11/2023 07:02:45 -72.79,-105.20 111.93 09/11/2023 07:03:39 -72.80,-105.17 111.92 1.58 54
66 09/11/2023 07:52:10 72.79, 62.44 68.09 09/11/2023 07:53:04 72.81, 62.50 68.11 2.58 54
67 09/11/2023 08:41:33 -72.77,-129.87 111.92 09/11/2023 08:42:32 -72.80,-129.89 111.89 2.80 59
68 09/11/2023 09:30:58 72.78, 37.76 68.11 09/11/2023 09:31:57 72.81, 37.78 68.14 3.21 59
69 09/11/2023 10:20:22 -72.81,-154.65 111.85 09/11/2023 10:21:25 -72.80,-154.60 111.86 2.21 63
70 09/11/2023 11:09:47 72.82, 12.98 68.17 09/11/2023 11:10:50 72.81, 13.06 68.16 2.82 63
71 09/11/2023 11:59:10 -72.80,-179.33 111.84 09/11/2023 12:00:18 -72.80,-179.32 111.84 0.14 68
72 09/11/2023 12:48:35 72.81, -11.69 68.19 09/11/2023 12:49:43 72.81, -11.66 68.19 1.15 68
73 09/11/2023 13:37:59 -72.84, 155.89 111.77 09/11/2023 13:39:11 -72.80, 155.96 111.81 4.92 72
74 09/11/2023 14:27:24 72.85, -36.47 68.25 09/11/2023 14:28:36 72.81, -36.38 68.22 5.16 72
75 09/11/2023 15:16:50 -72.99, 130.91 111.60 09/11/2023 15:18:01 -72.96, 131.55 111.62 21.13 71
76 09/11/2023 16:06:16 73.05, -61.57 68.48 09/11/2023 16:07:26 72.97, -60.79 68.41 26.80 70
77 09/11/2023 16:55:42 -73.19, 105.81 111.38 09/11/2023 16:56:51 -73.12, 107.14 111.43 43.75 69
78 09/11/2023 17:45:07 73.19, -86.56 68.65 09/11/2023 17:46:16 73.13, -85.19 68.60 44.88 69
79 09/11/2023 18:34:33 -73.33, 80.81 111.21 09/11/2023 18:35:41 -73.28, 82.75 111.24 62.24 68
80 09/11/2023 19:23:59 73.39,-111.68 68.87 09/11/2023 19:25:05 73.34,-109.48 68.84 70.22 66
81 09/11/2023 20:13:25 -73.53, 55.69 110.98 09/11/2023 20:14:30 -73.49, 58.46 111.00 87.64 65
82 09/11/2023 21:02:50 73.54,-136.68 69.04 09/11/2023 21:03:55 73.50,-133.87 69.03 89.01 65



Historial Predications of SNOs between AQUA and LANDSAT-8
